TimeCST,TemperatureF,Dew PointF,Humidity,Sea Level PressureIn,VisibilityMPH,Wind Direction,Wind SpeedMPH,Gust SpeedMPH,PrecipitationIn,Events,Conditions,WindDirDegrees,DateUTC
12:53 AM,54.0,52.0,93,30.04,10.0,North,11.5,-,N/A,,Overcast,350,2013-01-02 06:53:00
1:04 AM,53.6,51.8,94,30.03,10.0,North,10.4,18.4,N/A,,Overcast,360,2013-01-02 07:04:00
1:53 AM,53.1,51.1,93,30.04,10.0,North,12.7,-,N/A,,Overcast,360,2013-01-02 07:53:00
2:34 AM,51.8,48.2,88,30.06,10.0,NNW,13.8,21.9,N/A,,Overcast,340,2013-01-02 08:34:00
2:53 AM,52.0,48.9,89,30.06,10.0,North,10.4,-,0.00,,Overcast,360,2013-01-02 08:53:00
3:11 AM,51.8,48.2,88,30.05,10.0,North,9.2,-,N/A,,Overcast,360,2013-01-02 09:11:00
3:53 AM,51.1,48.0,89,30.06,10.0,North,9.2,-,N/A,,Overcast,350,2013-01-02 09:53:00
4:00 AM,51.8,48.2,88,30.07,10.0,North,13.8,-,N/A,,Overcast,350,2013-01-02 10:00:00
4:53 AM,50.0,46.9,89,30.07,10.0,North,10.4,-,N/A,,Overcast,360,2013-01-02 10:53:00
5:45 AM,50.0,46.4,87,30.08,10.0,North,11.5,-,N/A,,Overcast,350,2013-01-02 11:45:00
5:53 AM,50.0,46.9,89,30.09,10.0,North,6.9,-,N/A,,Mostly Cloudy,350,2013-01-02 11:53:00
6:53 AM,48.9,46.0,90,30.10,10.0,North,13.8,20.7,N/A,,Overcast,360,2013-01-02 12:53:00
7:53 AM,48.9,46.0,90,30.12,10.0,North,6.9,-,N/A,,Overcast,10,2013-01-02 13:53:00
8:53 AM,48.9,46.0,90,30.15,10.0,NNW,10.4,-,N/A,,Overcast,340,2013-01-02 14:53:00
9:53 AM,48.9,45.0,86,30.17,10.0,North,9.2,-,N/A,,Overcast,350,2013-01-02 15:53:00
10:53 AM,48.9,44.1,83,30.16,10.0,North,11.5,-,N/A,,Overcast,350,2013-01-02 16:53:00
11:53 AM,50.0,44.1,80,30.12,10.0,North,9.2,-,N/A,,Overcast,350,2013-01-02 17:53:00
12:00 PM,51.8,44.6,76,30.11,10.0,North,9.2,-,N/A,,Overcast,10,2013-01-02 18:00:00
12:53 PM,50.0,44.1,80,30.10,10.0,NNW,11.5,-,N/A,,Overcast,330,2013-01-02 18:53:00
1:53 PM,50.0,43.0,77,30.09,10.0,North,8.1,-,N/A,,Overcast,350,2013-01-02 19:53:00
2:04 PM,50.0,42.8,76,30.10,10.0,North,8.1,-,N/A,,Overcast,350,2013-01-02 20:04:00
2:53 PM,51.1,43.0,74,30.11,10.0,North,10.4,-,N/A,,Overcast,350,2013-01-02 20:53:00
3:53 PM,48.9,43.0,80,30.14,10.0,NNW,8.1,-,N/A,,Overcast,330,2013-01-02 21:53:00
4:53 PM,48.9,43.0,80,30.15,10.0,North,9.2,-,0.00,Rain,Light Rain,350,2013-01-02 22:53:00
5:53 PM,48.0,42.1,80,30.14,10.0,North,8.1,-,0.00,,Overcast,360,2013-01-02 23:53:00
6:53 PM,46.9,42.1,83,30.15,10.0,North,10.4,-,0.00,,Overcast,360,2013-01-03 00:53:00
7:53 PM,46.9,41.0,80,30.18,10.0,North,11.5,19.6,N/A,,Overcast,360,2013-01-03 01:53:00
8:53 PM,46.0,41.0,83,30.18,9.0,North,9.2,-,0.00,Rain,Light Rain,10,2013-01-03 02:53:00
9:49 PM,44.6,42.8,93,30.20,8.0,North,9.2,-,0.01,Rain,Light Rain,350,2013-01-03 03:49:00
10:53 PM,44.1,41.0,89,30.21,7.0,North,10.4,-,0.03,Rain,Light Rain,350,2013-01-03 04:53:00
11:00 PM,44.6,41.0,87,30.20,7.0,North,10.4,-,0.01,Rain,Light Rain,360,2013-01-03 05:00:00
11:53 PM,43.0,42.1,97,30.20,5.0,North,6.9,-,0.06,Rain,Light Rain,350,2013-01-03 05:53:00